This is the latest recevied weather packets stored in our database for station/object K0VSC-1. If no packets are shown the sender has not sent any weather packets the latest 10 day(s).
| Time | Temp. | Humidity | Pressure | Rain* | Wind** | Luminosity | Snow |
|---|---|---|---|---|---|---|---|
| 1777767492 | 15° C | 44% | 1009.3 hPa | 0 mm | - | 33 W/m² | - |
| 1777767192 | 15° C | 43% | 1009.5 hPa | 0 mm | - | 46 W/m² | - |
| 1777766892 | 15° C | 43% | 1009.5 hPa | 0 mm | - | 51 W/m² | - |
| 1777766592 | 15° C | 43% | 1009.6 hPa | 0 mm | - | 37 W/m² | - |
| 1777766292 | 15° C | 44% | 1009.8 hPa | 0 mm | - | 40 W/m² | - |
| 1777765992 | 15° C | 43% | 1010.1 hPa | 0 mm | - | 37 W/m² | - |
| 1777765692 | 15.56° C | 41% | 1010 hPa | 0 mm | - | 32 W/m² | - |
| 1777765392 | 15.56° C | 40% | 1010.2 hPa | 0 mm | - | 53 W/m² | - |
| 1777765092 | 16.11° C | 39% | 1010.2 hPa | 0 mm | - | 69 W/m² | - |
| 1777764792 | 16.11° C | 39% | 1010.2 hPa | 0 mm | - | 63 W/m² | - |
| 1777764492 | 16.11° C | 38% | 1010.2 hPa | 0 mm | - | 79 W/m² | - |
| 1777764192 | 16.67° C | 38% | 1010.3 hPa | 0 mm | - | 102 W/m² | - |
| 1777763892 | 16.67° C | 35% | 1010.2 hPa | 0 mm | - | 88 W/m² | - |
| 1777763592 | 16.67° C | 35% | 1010.1 hPa | 0 mm | - | 69 W/m² | - |
| 1777763292 | 16.67° C | 35% | 1010.1 hPa | 0 mm | - | 63 W/m² | - |
| 1777762992 | 17.22° C | 34% | 1010.1 hPa | 0 mm | - | 79 W/m² | - |
| 1777762692 | 17.22° C | 33% | 1010.1 hPa | 0 mm | - | 91 W/m² | - |
| 1777762392 | 17.22° C | 34% | 1010 hPa | 0 mm | - | 116 W/m² | - |
| 1777762092 | 17.22° C | 33% | 1010.1 hPa | 0 mm | - | 127 W/m² | - |
| 1777761792 | 17.22° C | 32% | 1010 hPa | 0 mm | - | 146 W/m² | - |
| 1777761492 | 17.22° C | 33% | 1010.1 hPa | 0 mm | - | 204 W/m² | - |
| 1777761192 | 17.22° C | 36% | 1010.3 hPa | 0 mm | - | 186 W/m² | - |
| 1777760892 | 17.22° C | 36% | 1010.2 hPa | 0 mm | - | 148 W/m² | - |
| 1777760592 | 17.22° C | 36% | 1010.3 hPa | 0 mm | - | 132 W/m² | - |
| 1777760292 | 17.22° C | 35% | 1010.1 hPa | 0 mm | - | 185 W/m² | - |
* Rain latest hour (hover to see other rain measurements)
** Current wind speed in m/s (hover to see current wind gust speed)